EW0295 Skanderborg DK current weather conditions

sailwx.info

Wind from 199 at 6 knots gusting 14

Air temperature 7.8° C
Dewpoint 6.9° C

Last reported at 2019-Dec-06 15:04 UTC.
Time now 2019-Dec-06 15:51 UTC

Location: N 56°03' E 009°58'.
View on Google Maps.

See reports from other nearby stations

  
Tides and Currents Weather Stations Pressure Air Temp Water Temp Dewpoint Dewpoint Depression Visibility Wind Speed Wind Dir Waves Ship Positions
date/time (UTC)wind fromknots sea level pressurealtimeterstation pressurevisibilityair tempwater tempwave heightnotes
2019-Dec-06 15:04 199 6 gusting 14 7.8
2019-Dec-06 14:55 197 5 gusting 14 7.8
2019-Dec-06 14:46 198 5 gusting 10 8.3
2019-Dec-06 14:37 197 5 gusting 13 8.3
2019-Dec-06 14:28 202 5 gusting 11 8.3
2019-Dec-06 14:19 199 5 gusting 15 8.3
2019-Dec-06 14:10 205 5 gusting 13 8.3
2019-Dec-06 14:01 191 4 gusting 9 8.9
2019-Dec-06 13:52 201 4 gusting 11 8.9
2019-Dec-06 13:43 198 4 gusting 9 8.9
2019-Dec-06 13:34 198 4 gusting 10 8.9
2019-Dec-06 13:25 203 3 gusting 9 9.4
2019-Dec-06 13:16 207 3 gusting 11 9.4
2019-Dec-06 13:07 211 4 gusting 10 9.4
2019-Dec-06 12:58 206 3 gusting 12 9.4
2019-Dec-06 12:49 204 3 gusting 12 9.4
2019-Dec-06 12:40 201 4 gusting 8 9.4
2019-Dec-06 12:31 202 4 gusting 12 9.4
2019-Dec-06 12:22 203 4 gusting 10 9.4
2019-Dec-06 12:13 214 5 gusting 13 9.4
2019-Dec-06 12:04 208 3 gusting 13 9.4
2019-Dec-06 11:55 214 4 gusting 10 10.0
2019-Dec-06 11:46 210 4 gusting 10 10.0
2019-Dec-06 11:37 218 4 gusting 9 10.0
2019-Dec-06 11:28 209 3 gusting 11 10.0
2019-Dec-06 11:19 211 5 gusting 11 10.0
2019-Dec-06 11:10 208 3 gusting 9 10.0
2019-Dec-06 11:01 207 3 gusting 9 10.0
2019-Dec-06 10:52 210 3 gusting 8 10.0
2019-Dec-06 10:43 209 4 gusting 12 10.0
2019-Dec-06 10:34 218 3 gusting 9 10.0
2019-Dec-06 10:25 216 4 gusting 11 10.0
2019-Dec-06 10:16 221 3 gusting 8 10.0
2019-Dec-06 10:07 221 4 gusting 9 10.0
2019-Dec-06 09:58 225 4 gusting 10 10.0
2019-Dec-06 09:49 230 4 gusting 11 10.0
2019-Dec-06 09:40 232 3 gusting 7 10.0
2019-Dec-06 09:31 240 4 gusting 10 10.0
2019-Dec-06 09:22 236 5 gusting 10 10.0
2019-Dec-06 09:13 243 4 gusting 11 10.0
2019-Dec-06 09:04 249 4 gusting 12 10.0
2019-Dec-06 08:55 246 5 gusting 14 10.0
2019-Dec-06 08:46 243 6 gusting 13 10.0
2019-Dec-06 08:37 238 6 gusting 13 10.0
2019-Dec-06 08:28 239 5 gusting 11 10.0
2019-Dec-06 08:19 242 5 gusting 12 10.0
2019-Dec-06 08:10 244 5 gusting 12 10.0
2019-Dec-06 08:01 244 6 gusting 13 10.0
2019-Dec-06 07:52 245 6 gusting 13 10.0
2019-Dec-06 07:43 242 6 gusting 13 10.0
2019-Dec-06 07:34 242 6 gusting 14 10.0
2019-Dec-06 07:25 245 6 gusting 13 10.0
2019-Dec-06 07:16 245 6 gusting 14 10.0
2019-Dec-06 07:07 249 6 gusting 13 10.0
2019-Dec-06 06:58 248 7 gusting 16 10.0
2019-Dec-06 06:49 248 6 gusting 13 10.0
2019-Dec-06 06:40 242 7 gusting 14 10.0
2019-Dec-06 06:31 245 7 gusting 17 10.0
2019-Dec-06 06:22 244 8 gusting 18 10.0
2019-Dec-06 06:13 242 10 gusting 19 10.0
2019-Dec-06 06:04 244 9 gusting 15 10.0
2019-Dec-06 05:55 245 8 gusting 18 9.4
2019-Dec-06 05:46 240 9 gusting 18 9.4
2019-Dec-06 05:37 240 9 gusting 18 9.4
2019-Dec-06 05:28 244 9 gusting 17 9.4
2019-Dec-06 05:19 237 8 gusting 17 9.4
2019-Dec-06 05:10 239 9 gusting 18 9.4
2019-Dec-06 05:01 236 8 gusting 16 9.4
2019-Dec-06 04:52 240 8 gusting 18 9.4
2019-Dec-06 04:43 237 7 gusting 16 9.4
2019-Dec-06 04:34 234 7 gusting 16 8.9
2019-Dec-06 04:25 236 8 gusting 16 8.9
2019-Dec-06 04:16 233 7 gusting 17 8.9
2019-Dec-06 04:07 233 7 gusting 14 8.9
2019-Dec-06 03:58 230 7 gusting 17 8.9
2019-Dec-06 03:49 233 8 gusting 19 8.9
2019-Dec-06 03:40 233 7 gusting 14 8.9
2019-Dec-06 03:31 231 8 gusting 18 8.9
2019-Dec-06 03:22 229 8 gusting 17 8.9
2019-Dec-06 03:13 229 8 gusting 20 8.9
2019-Dec-06 03:04 232 10 gusting 19 8.9
2019-Dec-06 02:55 229 9 gusting 24 8.3
2019-Dec-06 02:46 232 10 gusting 23 8.3
2019-Dec-06 02:37 227 8 gusting 18 8.3
2019-Dec-06 02:28 228 9 gusting 21 8.3
2019-Dec-06 02:19 225 8 gusting 21 8.3
2019-Dec-06 02:10 229 10 gusting 21 8.3
2019-Dec-06 02:01 226 8 gusting 19 8.3
2019-Dec-06 01:52 222 9 gusting 20 8.3
2019-Dec-06 01:43 226 9 gusting 21 7.8
2019-Dec-06 01:34 220 9 gusting 26 7.8
2019-Dec-06 01:25 220 9 gusting 19 7.8
2019-Dec-06 01:16 221 10 gusting 24 7.8
2019-Dec-06 01:07 222 9 gusting 24 7.8
2019-Dec-06 00:58 217 8 gusting 22 7.2
2019-Dec-06 00:49 220 9 gusting 19 7.2
2019-Dec-06 00:40 222 10 gusting 22 7.2
2019-Dec-06 00:31 220 9 gusting 19 7.2
2019-Dec-06 00:22 217 9 gusting 20 7.2
2019-Dec-06 00:13 221 9 gusting 19 7.2
2019-Dec-06 00:04 210 8 gusting 20 7.2
2019-Dec-05 23:55 216 9 gusting 21 7.2
2019-Dec-05 23:46 218 8 gusting 17 6.7
2019-Dec-05 23:37 214 8 gusting 23 6.7
2019-Dec-05 23:28 214 9 gusting 23 6.7
2019-Dec-05 23:19 216 9 gusting 19 6.7
2019-Dec-05 23:10 213 9 gusting 24 6.7
2019-Dec-05 23:01 209 9 gusting 24 6.7
2019-Dec-05 22:52 217 8 gusting 23 6.7
2019-Dec-05 22:43 215 9 gusting 20 7.2
2019-Dec-05 22:34 218 8 gusting 20 7.2
2019-Dec-05 22:25 212 9 gusting 19 7.2
2019-Dec-05 22:16 210 9 gusting 19 7.2
2019-Dec-05 22:07 212 8 gusting 19 7.2
2019-Dec-05 21:58 215 8 gusting 19 7.2
2019-Dec-05 21:49 216 7 gusting 19 7.8
2019-Dec-05 21:40 217 8 gusting 19 7.8
2019-Dec-05 21:31 214 7 gusting 19 7.8
2019-Dec-05 21:22 215 8 gusting 19 7.8
2019-Dec-05 21:13 209 7 gusting 20 7.8
2019-Dec-05 21:04 221 7 gusting 18 7.8
2019-Dec-05 20:55 217 7 gusting 19 7.2
2019-Dec-05 20:46 212 7 gusting 20 7.2
2019-Dec-05 20:37 214 7 gusting 16 7.2
2019-Dec-05 20:28 206 6 gusting 14 7.2
2019-Dec-05 20:19 210 7 gusting 15 7.2
2019-Dec-05 20:10 202 7 gusting 17 7.2
2019-Dec-05 20:01 209 6 gusting 17 7.2
2019-Dec-05 19:52 211 7 gusting 17 7.2
2019-Dec-05 19:43 216 6 gusting 17 7.2
2019-Dec-05 19:34 212 7 gusting 23 7.2
2019-Dec-05 19:25 211 6 gusting 14 7.2
2019-Dec-05 19:16 211 6 gusting 14 7.2
2019-Dec-05 19:07 212 6 gusting 16 7.2
2019-Dec-05 18:58 212 7 gusting 16 7.2
2019-Dec-05 18:49 212 6 gusting 16 7.2
2019-Dec-05 18:40 216 6 gusting 16 7.2
2019-Dec-05 18:31 214 6 gusting 17 7.2
2019-Dec-05 18:22 219 6 gusting 16 7.2
2019-Dec-05 18:13 218 6 gusting 18 7.2
2019-Dec-05 18:04 218 6 gusting 15 7.2
2019-Dec-05 17:55 217 6 gusting 14 7.2
2019-Dec-05 17:46 214 7 gusting 14 7.2
2019-Dec-05 17:37 220 6 gusting 14 7.2
2019-Dec-05 17:28 221 6 gusting 16 7.2
2019-Dec-05 17:19 216 5 gusting 12 7.2
2019-Dec-05 17:10 215 6 gusting 13 7.2
2019-Dec-05 17:01 213 5 gusting 14 7.2
2019-Dec-05 16:52 212 5 gusting 15 7.2
2019-Dec-05 16:43 220 6 gusting 15 7.2
2019-Dec-05 16:34 220 6 gusting 15 7.2
2019-Dec-05 16:25 221 6 gusting 17 7.2
2019-Dec-05 16:16 220 6 gusting 14 7.8
2019-Dec-05 16:07 219 6 gusting 15 7.8
2019-Dec-05 15:58 222 6 gusting 14 7.2
2019-Dec-05 15:49 216 6 gusting 16 7.2
2019-Dec-05 15:40 218 6 gusting 14 7.2
2019-Dec-05 15:31 218 6 gusting 14 7.2
2019-Dec-05 15:22 219 6 gusting 14 7.2
2019-Dec-05 15:13 224 6 gusting 14 7.2
2019-Dec-05 14:52 218 6 gusting 16 7.8
2019-Dec-05 14:43 222 6 gusting 16 7.8
2019-Dec-05 14:34 223 6 gusting 13 7.8
2019-Dec-05 14:25 224 6 gusting 14 7.8
2019-Dec-05 14:16 226 6 gusting 14 7.8
2019-Dec-05 14:07 219 5 gusting 14 7.8
2019-Dec-05 13:58 219 6 gusting 16 7.8
2019-Dec-05 13:49 225 7 gusting 16 7.8
2019-Dec-05 13:40 226 7 gusting 16 7.8
2019-Dec-05 13:31 227 6 gusting 14 8.3
2019-Dec-05 13:22 236 6 gusting 19 8.3
2019-Dec-05 13:13 232 7 gusting 19 8.3
2019-Dec-05 13:04 238 7 gusting 16 8.3
2019-Dec-05 12:55 242 4 gusting 13 8.3
2019-Dec-05 12:46 239 5 gusting 12 8.3
2019-Dec-05 12:37 242 5 gusting 13 8.3
2019-Dec-05 12:28 244 6 gusting 16 8.3
2019-Dec-05 12:19 240 5 gusting 16 8.3
2019-Dec-05 12:10 237 6 gusting 13 8.3
2019-Dec-05 12:01 239 6 gusting 13 8.3
2019-Dec-05 11:52 240 6 gusting 13 8.3
2019-Dec-05 11:43 231 6 gusting 13 8.3
2019-Dec-05 11:34 227 6 gusting 13 8.9
2019-Dec-05 11:25 228 6 gusting 22 8.9
2019-Dec-05 11:16 223 6 gusting 16 8.3
2019-Dec-05 11:07 222 6 gusting 14 8.3
2019-Dec-05 10:58 223 5 gusting 14 8.3
2019-Dec-05 10:49 229 6 gusting 14 8.3
2019-Dec-05 10:40 223 6 gusting 17 8.3
2019-Dec-05 10:31 229 6 gusting 15 8.3
2019-Dec-05 10:22 224 5 gusting 11 8.3
2019-Dec-05 10:13 224 5 gusting 12 7.8
2019-Dec-05 10:04 222 6 gusting 12 7.8
2019-Dec-05 09:55 220 5 gusting 12 7.8
2019-Dec-05 09:46 222 5 gusting 15 7.8
2019-Dec-05 09:37 225 5 gusting 15 7.8
2019-Dec-05 09:28 222 6 gusting 13 7.2
2019-Dec-05 09:19 218 5 gusting 13 7.2
2019-Dec-05 09:10 212 5 gusting 14 7.2
2019-Dec-05 09:01 200 4 gusting 12 7.2
2019-Dec-05 08:52 210 4 gusting 11 6.7
2019-Dec-05 08:43 205 4 gusting 10 6.7
2019-Dec-05 08:34 214 3 gusting 11 6.7
2019-Dec-05 08:25 208 4 gusting 15 6.7
2019-Dec-05 08:16 208 3 gusting 10 6.7
2019-Dec-05 08:07 210 4 gusting 10 6.7
2019-Dec-05 07:58 208 4 gusting 10 6.7
2019-Dec-05 07:49 211 4 gusting 11 6.7
2019-Dec-05 07:40 212 3 gusting 9 6.7
2019-Dec-05 07:31 217 4 gusting 13 6.7
2019-Dec-05 07:22 218 4 gusting 12 6.7
2019-Dec-05 07:13 215 3 gusting 12 6.7
2019-Dec-05 07:04 210 3 gusting 10 6.7
2019-Dec-05 06:55 213 4 gusting 10 6.7
2019-Dec-05 06:46 206 5 gusting 12 6.7
2019-Dec-05 06:37 209 4 gusting 12 6.7
2019-Dec-05 06:28 206 3 gusting 9 6.7
2019-Dec-05 06:19 195 4 gusting 11 6.7
2019-Dec-05 06:10 213 3 gusting 9 6.7
2019-Dec-05 06:01 212 3 gusting 8 6.7
2019-Dec-05 05:52 207 3 gusting 9 6.7
2019-Dec-05 05:43 206 3 gusting 11 6.1
2019-Dec-05 05:34 209 4 gusting 9 6.1
2019-Dec-05 05:25 210 3 gusting 8 6.1
2019-Dec-05 05:16 214 3 gusting 9 6.1
2019-Dec-05 05:07 210 3 gusting 7 6.1
2019-Dec-05 04:58 204 3 gusting 10 6.1
2019-Dec-05 04:49 198 3 gusting 10 6.1
2019-Dec-05 04:40 199 3 gusting 11 6.1
2019-Dec-05 04:31 195 3 gusting 8 6.1
2019-Dec-05 04:22 193 3 gusting 8 6.1
2019-Dec-05 04:13 198 3 gusting 6 6.1
2019-Dec-05 04:04 197 3 gusting 7 6.1
2019-Dec-05 03:55 200 2 gusting 8 6.1
2019-Dec-05 03:46 201 2 gusting 8 6.1
2019-Dec-05 03:37 205 2 gusting 6 6.1
2019-Dec-05 03:28 214 3 gusting 8 6.1
2019-Dec-05 03:19 210 3 gusting 8 6.1
2019-Dec-05 03:10 212 3 gusting 9 6.1
2019-Dec-05 03:01 216 2 gusting 8 6.7
2019-Dec-05 02:52 216 3 gusting 9 6.7
2019-Dec-05 02:43 217 4 gusting 12 6.7
2019-Dec-05 02:34 225 5 gusting 12 6.7
2019-Dec-05 02:25 227 4 gusting 12 6.7
2019-Dec-05 02:16 232 5 gusting 10 7.2
2019-Dec-05 02:07 235 5 gusting 10 7.2
2019-Dec-05 01:58 237 5 gusting 13 7.2
2019-Dec-05 01:49 236 4 gusting 13 7.2
2019-Dec-05 01:40 237 6 gusting 13 7.2
2019-Dec-05 01:31 234 6 gusting 13 7.2
2019-Dec-05 01:22 238 6 gusting 12 7.2
2019-Dec-05 01:13 238 6 gusting 12 7.2
2019-Dec-05 01:04 239 6 gusting 13 7.2
2019-Dec-05 00:55 241 6 gusting 13 7.2
2019-Dec-05 00:46 241 6 gusting 16 7.2
2019-Dec-05 00:37 242 5 gusting 11 6.7
2019-Dec-05 00:28 241 6 gusting 14 6.7
2019-Dec-05 00:19 237 5 gusting 13 6.7
2019-Dec-05 00:10 232 6 gusting 11 6.7
2019-Dec-05 00:01 233 5 gusting 10 6.7
2019-Dec-04 23:52 237 4 gusting 10 6.7
2019-Dec-04 23:43 236 6 gusting 11 6.7
2019-Dec-04 23:34 230 5 gusting 12 6.1
2019-Dec-04 23:25 227 5 gusting 10 6.1
2019-Dec-04 23:16 230 4 gusting 10 6.1
2019-Dec-04 23:07 227 4 gusting 9 6.1
2019-Dec-04 22:58 238 5 gusting 10 6.1
2019-Dec-04 22:49 238 4 gusting 8 6.1
2019-Dec-04 22:40 231 3 gusting 9 5.6
2019-Dec-04 22:31 221 2 gusting 6 5.6
2019-Dec-04 22:22 222 2 gusting 6 5.6
2019-Dec-04 22:13 214 2 gusting 6 5.6
2019-Dec-04 22:04 219 2 gusting 6 6.1
2019-Dec-04 21:55 219 3 gusting 9 6.1
2019-Dec-04 21:46 225 3 gusting 10 6.1
2019-Dec-04 21:37 228 4 gusting 9 6.1
2019-Dec-04 21:28 233 3 gusting 9 6.1
2019-Dec-04 21:19 230 3 gusting 8 6.1
2019-Dec-04 21:10 231 3 gusting 8 6.1
2019-Dec-04 21:01 237 3 gusting 8 6.1
2019-Dec-04 20:52 233 3 gusting 8 6.1
2019-Dec-04 20:43 231 3 gusting 10 6.7
2019-Dec-04 20:34 232 4 gusting 8 6.7
2019-Dec-04 20:25 229 2 gusting 8 6.7
2019-Dec-04 20:16 231 3 gusting 7 6.7
2019-Dec-04 20:07 236 3 gusting 8 6.7
2019-Dec-04 19:58 239 3 gusting 11 6.7
2019-Dec-04 19:49 239 3 gusting 11 6.7
2019-Dec-04 19:40 231 3 gusting 9 6.7
2019-Dec-04 19:31 231 3 gusting 7 7.2
2019-Dec-04 19:22 231 4 gusting 11 7.2
2019-Dec-04 19:13 226 3 gusting 10 7.2
2019-Dec-04 19:04 228 2 gusting 7 6.7
2019-Dec-04 18:55 228 3 gusting 8 6.7
2019-Dec-04 18:46 229 3 gusting 10 6.7
2019-Dec-04 18:37 217 1 gusting 7 6.7
2019-Dec-04 18:28 217 1 gusting 7 6.7
2019-Dec-04 18:19 218 2 gusting 8 6.7
2019-Dec-04 18:10 220 2 gusting 6 6.7
2019-Dec-04 18:01 227 2 gusting 6 6.7
2019-Dec-04 17:52 229 2 gusting 7 6.7
2019-Dec-04 17:43 229 2 gusting 7 6.7
2019-Dec-04 17:34 231 1 gusting 6 6.7
2019-Dec-04 17:25 230 2 gusting 6 6.7
2019-Dec-04 17:16 231 1 gusting 6 6.7
2019-Dec-04 17:07 222 1 gusting 5 6.7
2019-Dec-04 16:58 218 2 gusting 6 6.1
2019-Dec-04 16:49 210 1 gusting 5 6.1
2019-Dec-04 16:40 208 1 gusting 4 6.1
2019-Dec-04 16:31 210 2 gusting 6 6.7
2019-Dec-04 16:22 219 2 gusting 7 6.7
2019-Dec-04 16:13 226 2 gusting 7 6.7
2019-Dec-04 16:04 223 2 gusting 6 6.7
2019-Dec-04 15:55 224 3 gusting 10 6.7
2019-Dec-04 15:46 228 4 gusting 11 6.7
2019-Dec-04 15:37 231 5 gusting 11 7.2
2019-Dec-04 15:28 231 5 gusting 10 7.2
2019-Dec-04 15:19 233 6 gusting 11 7.2
2019-Dec-04 15:10 239 5 gusting 9 6.7
2019-Dec-04 15:01 237 6 gusting 12 6.7